Location: ????????
(55.4000°N, 39.1167°E)
Time: 05:01:14
(UTC+00:00)

Cosmos 1356 Rocket - Pass Details

Date: 19 May 2025
Orbit: 517 x 566 km, 81.2° (Epoch: 19 June)

Event Time Altitude Azimuth Distance (km) Brightness Sun altitude
Exits shadow 18:52:52 - 179° (S) 2,142 5.8 -8.4°
Reaches altitude 10° 18:53:34 10° 177° (S) 1,861 5.5 -8.5°
Maximum altitude 18:57:36 57° 99° (E) 668 3.5 -8.8°
Drops below altitude 10° 19:01:38 10° 21° (NNE) 1,859 6.5 -9.1°
Sets 19:03:49 0° 17° (NNE) 2,752 7.5 -9.3°
